Вернуться в каталог

CZ-3C DEB

LostGTO
NORAD 40816·DEBRIS·🇨🇳 China

Запущен Oct 31, 2010 с Xichang Satellite Launch Center

Loading…

TLE

УстаревшееSource: Space-Track

Эпоха: Oct 24, 2024, 10:21 UTC

1 40816U 10057AH  24298.43136527 -.00000069  00000-0 -64025-4 0  9996
2 40816  19.7804 245.1152 7117488 261.2264  19.5039  2.29515110 85915

Отслеживайте CZ-3C DEB в реальном времени с AllMySat

Download on the App Store